Hourly Weather Roundup
Issued by NWS Central Illinois

Home | Current Version | Previous Version | Text Only | Print | Product List | Glossary On
Versions: 1 2 3 4 5 6 7 8 9 10 11 12 13 14 15 16 17 18 19 20 21 22 23 24 25 26 27 28 29 30 31 32 33 34 35 36 37 38 39 40 41 42 43 44 45 46 47 48 49 50
720
NZUS43 KILX 281710
HWRILX

AREA WEATHER ROUNDUP
NATIONAL WEATHER SERVICE, LINCOLN IL
1200 PM CDT TUE MAR 28 2017


CITY           SKY/WX    TMP DP  RH WIND       PRES   REMARKS
BLOOMINGTON    CLOUDY    48  42  80 NE8       30.12S
CHAMPAIGN      CLOUDY    52  43  71 N9        30.09S
DECATUR        CLOUDY    53  43  68 NE8       30.10S
EFFINGHAM      CLOUDY    55  49  80 W6        30.10R
FLORA          CLOUDY    57  48  73 N7        30.08S
GALESBURG      CLOUDY    49  46  90 E7        30.12S FOG
JACKSONVILLE   CLOUDY    50  49  93 NE6       30.11R FOG
LACON          CLOUDY    49  42  78 NE5       30.12S
LAWRENCEVILLE  CLOUDY    58  50  75 N5        30.06S
LITCHFIELD     CLOUDY    53  47  80 NE9       30.09R
$$


CITY           SKY/WX    TMP DP  RH WIND       PRES   REMARKS
LINCOLN        CLOUDY    51  46  80 NE7       30.11S
MACOMB         CLOUDY    51  47  87 E7        30.14R
MATTOON        MOSUNNY   56  47  71 NE10G20   30.07S
MT CARMEL AP   CLOUDY    56  49  74 N7        30.06S
OLNEY-NOBLE AP CLOUDY    54  50  87 CALM      30.08R
PARIS          PTSUNNY   55  47  76 NE14      30.08F
PEORIA         CLOUDY    50  43  77 VRB5      30.12S
PONTIAC        CLOUDY    49  45  84 N9        30.12F
RANTOUL        CLOUDY    50  42  75 N8        30.10S
SPRINGFIELD    CLOUDY    53  46  77 NE5       30.11R HAZE
TAYLORVILLE    NOT AVBL
$$

...REGIONAL REPORTS...


CITY           SKY/WX    TMP DP  RH WIND       PRES   REMARKS
CHICAGO O`HARE CLOUDY    46  38  73 NE12      30.12S
KANKAKEE       CLOUDY    47  39  74 N9        30.13R
MOLINE         CLOUDY    48  45  89 E9        30.13R FOG
MOUNT STERLING CLOUDY    50  49  93 CALM      30.11R FOG
MOUNT VERNON   CLOUDY    56  48  74 VRB3      30.07F
PITTSFIELD     CLOUDY    54  49  83 NE5       30.11S
QUINCY         CLOUDY    53  48  83 NE6       30.10R
ROCKFORD       CLOUDY    47  37  68 NE7       30.16S
$$


CITY           SKY/WX    TMP DP  RH WIND       PRES   REMARKS
BURLINGTON     CLOUDY    51  47  86 N3        30.11S
CEDAR RAPIDS   CLOUDY    50  45  83 NE6       30.12S
DES MOINES     CLOUDY    50  42  74 E3        30.14R
KIRKSVILLE     CLOUDY    51  49  92 E7        30.12R FOG
OTTUMWA        CLOUDY    50  45  83 NE8       30.13R
ST LOUIS       CLOUDY    56  49  77 E8        30.10R
$$


CITY           SKY/WX    TMP DP  RH WIND       PRES   REMARKS
TERRE HAUTE    MOSUNNY   58  47  66 N9        30.06R
EVANSVILLE     CLOUDY    56  50  80 NW7       30.07R
INDIANAPOLIS   PTSUNNY   58  47  66 N10       30.04S
LAFAYETTE      CLOUDY    52  45  77 N12       30.07F
MADISON        PTSUNNY   48  36  63 E3        30.15R
MILWAUKEE      CLOUDY    40  35  83 NE14G20   30.15S WCI  32
$$






USA.gov is the U.S. government's official web portal to all federal, state and local government web resources and services.